Regional Weather Roundup
Issued by NWS

Home | Current Version | Previous Version | Graphics & Text | Print | Product List | Glossary On
Versions: 1 2 3 4 5 6 7 8 9 10 11 12 13 14 15 16 17 18 19 20 21 22 23 24 25 26 27 28 29 30 31 32 33 34 35 36 37 38 39 40 41 42 43 44 45 46 47 48 49 50
000
ASUS45 KPSR 252310
RWRAZ

ARIZONA HOURLY REGIONAL WEATHER ROUNDUP
NATIONAL WEATHER SERVICE PHOENIX AZ
400 PM MST THU MAY 25 2017

NOTE: FAIR INDICATES FEW OR NO CLOUDS BELOW 12,000 FEET WITH NO
SIGNIFICANT WEATHER AND/OR OBSTRUCTIONS TO VISIBILITY.

AZZ001>003-036-260000-
NORTHWEST ARIZONA

CITY           SKY/WX    TMP DP  RH WIND       PRES   REMARKS
BULLHEAD CITY  FAIR     102  16   4 S16G25    29.47F
KINGMAN        FAIR      90  23   9 SW26G35   29.69S
$$

AZZ004>008-015-016-018-260000-
NORTH CENTRAL ARIZONA

CITY           SKY/WX    TMP DP  RH WIND       PRES   REMARKS
GRAND CANYON   FAIR      74  16  11 W16G37    29.84F
WILLIAMS       FAIR      73  18  12 SW21G36   29.90S
PRESCOTT       FAIR      80  18  10 S18G29    29.84F
FLAGSTAFF      FAIR      72  20  14 S26G40    29.91S
PAYSON         FAIR      81   9   6 SW13G25   29.91S
PAGE           FAIR      86  23  10 W13G18    29.60F
$$

AZZ009>014-017-260000-
NORTHEAST ARIZONA

CITY           SKY/WX    TMP DP  RH WIND       PRES   REMARKS
WINSLOW        FAIR      86  16   7 SW26G44   29.78S
SAINT JOHNS    FAIR      80   1   5 W32G41    29.85S
WINDOW ROCK    FAIR      77  17  10 W25G38    29.85S
SHOW LOW       FAIR      73   7   7 SW28G37   29.93R
$$

AZZ540-542>544-546-548-260000-
GREATER PHOENIX AREA

CITY           SKY/WX    TMP DP  RH WIND       PRES   REMARKS
PHOENIX        PTSUNNY  100  12   4 W16G26    29.61F
BUCKEYE        FAIR      99  18   5 SW13G22   29.62F
GLENDALE       MOSUNNY  100  18   5 S14G24    29.63F
LUKE AFB       FAIR      98  20   6 SW21G30   29.60F
DEER VALLEY    FAIR      96  14   5 S13G25    29.64F
SCOTTSDALE     FAIR      98  14   4 W15G25    29.66F
MESA-FALCON    MOSUNNY  100  19   5 SW18G30   29.64F
MESA-GATEWAY   PTSUNNY   99  16   5 SW17G23   29.66F
CHANDLER       SUNNY     99  10   4 SW17G29   29.64S
$$

AZZ539-553-260000-
SOUTHWEST MARICOPA COUNTY AND PINAL COUNTY

CITY           SKY/WX    TMP DP  RH WIND       PRES   REMARKS
CASA GRANDE    FAIR      98  20   6 W15G24    29.65F
GILA BEND      PTSUNNY   98  24   7 SW21G29   29.61F
$$

AZZ503-504-507>509-260000-
SOUTHEAST ARIZONA

CITY           SKY/WX    TMP DP  RH WIND       PRES   REMARKS
TUCSON         FAIR      93  16   6 W15G21    29.77F
DAVIS-MONTHAN  FAIR      93  17   6 SW17G23   29.76F
RYAN FIELD     SUNNY     95  14   5 SW14G26   29.75F
NOGALES        FAIR      89  17   7 SW14G30   29.87F
SIERRA VISTA   FAIR      85  20   9 W20G32    29.93S
DOUGLAS        FAIR      88  18   7 W23G33    29.88S
SAFFORD        FAIR      94  11   4 W25G33    29.73S
$$

AZZ532-260000-
SOUTHWEST ARIZONA

CITY           SKY/WX    TMP DP  RH WIND       PRES   REMARKS
YUMA           PTSUNNY  100  22   6 S18       29.57F
$$

CAZ041-043-047-048-061-525>527-560>570-260000-
SOUTHERN CALIFORNIA

CITY           SKY/WX    TMP DP  RH WIND       PRES   REMARKS
DOWNTOWN L.A.  PTSUNNY   68  51  54 VRB3      29.86S
L.A. AIRPORT   PTSUNNY   65  51  60 W12       29.87F
SAN DIEGO      PTSUNNY   66  50  56 W9        29.89F
BURBANK        PTSUNNY   66  47  50 S10       29.84F
ONTARIO        FAIR      71  48  43 W15G21    29.83F
RIVERSIDE      FAIR      71  51  49 W15G25    29.83F
PALM SPRINGS   FAIR      92  38  15 NW20G35   29.59F
EL CENTRO NAS  FAIR      96  30   9 W28       29.59F
IMPERIAL       LGT RAIN  95  38  13 W24G32    29.56F
BLYTHE         FAIR     101  13   4 SW18      29.55F
NEEDLES        FAIR     105   1   2 S17G29    29.51F
$$

NVZ020-UTZ003-260000-
SOUTHERN NEVADA-UTAH

CITY           SKY/WX    TMP DP  RH WIND       PRES   REMARKS
LAS VEGAS      FAIR      99  11   4 W22G35    29.51S
SALT LAKE CITY FAIR      70  29  21 N10G17    29.72F
$$

NMZ009-TXZ055-260000-
NEW MEXICO-WEST TEXAS

CITY           SKY/WX    TMP DP  RH WIND       PRES   REMARKS
ALBUQUERQUE    CLOUDY    85   2   4 W18G35    29.76S
EL PASO        FAIR      93  18   6 W28G36    29.77F
$$


........................KEY........................
SKY/WX - SKY CONDITION/WEATHER
TMP    - TEMPERATURE IN FAHRENHEIT
DP     - DEW POINT IN FAHRENHEIT
RH     - RELATIVE HUMIDITY IN PERCENT
WIND   - DIRECTION AND SPEED IN MILES PER HOUR (MPH)
VRB    - VARIABLE WIND DIRECTION
PRES   - MEAN SEA LEVEL PRESSURE IN INCHES OF MERCURY
         F - FALLING PRESSURE   R - RISING PRESSURE
         S - STEADY PRESSURE
VSB    - VISIBILITY IN MILES
HX     - HEAT INDEX IN FAHRENHEIT
WCI    - WIND CHILL INDEX IN FAHRENHEIT
TC     - TEMPERATURE IN CELSIUS WHICH IS ALSO KNOWN AS
         TEMPERATURE IN CENTIGRADE
AFB    - AIR FORCE BASE
         LUKE AFB IS LUKE AIR FORCE BASE
         DAVIS-MONTHAN IS DAVIS-MONTHAN AIR FORCE BASE
NAS    - NAVAL AIR STATION
         EL CENTRO NAS IS EL CENTRO NAVAL AIR STATION
N/A    - NOT AVAILABLE




USA.gov is the U.S. government's official web portal to all federal, state and local government web resources and services.